Miscellaneous Local Product
Issued by NWS Hastings, NE

Home | Current Version | Previous Version | Graphics & Text | Print | Product List | Glossary On
Versions: 1 2 3 4 5 6 7 8 9 10 11 12 13 14 15 16 17 18 19 20 21 22 23 24 25 26 27 28 29 30 31 32 33 34 35 36 37 38 39 40 41 42 43 44 45 46 47 48 49 50
000
AXUS43 KGID 291402
MISGRI

GID CWA HOURLY WEATHER ROUNDUP
NATIONAL WEATHER SERVICE HASTINGS NE
900 AM CDT MON JUN 29 2015

NOTE: "FAIR" INDICATES FEW OR NO CLOUDS BELOW 12,000 FEET WITH NO
SIGNIFICANT WEATHER AND/OR OBSTRUCTIONS TO VISIBILITY.

...SOUTH CENTRAL NEBRASKA...

CITY           SKY/WX    TMP DP  RH WIND       PRES   REMARKS
GRAND ISLAND   SUNNY     67  58  72 W7        30.04S
HASTINGS       SUNNY     68  58  70 NW6       30.05R
KEARNEY        SUNNY     70  55  60 W8        30.06S
ORD            SUNNY     65  59  81 N6        30.04R
YORK           SUNNY     68  59  73 NW8       30.01S
AURORA         SUNNY     68  60  74 NW6       30.03R
LEXINGTON      SUNNY     70  60  70 W5        30.08F
HOLDREGE       SUNNY     68  59  73 W3        30.07S
HEBRON         SUNNY     67  58  72 W6        30.01S

...NEBRASKA PANHANDLE...

CITY           SKY/WX    TMP DP  RH WIND       PRES   REMARKS
CHADRON        LGT RAIN  65  61  87 N10       30.14S
ALLIANCE       MOSUNNY   69  61  75 CALM      30.18R
SCOTTSBLUFF    MOSUNNY   74  57  55 NW8G22    30.20R
SIDNEY         SUNNY     71  60  68 W9        30.17R

...WESTERN AND NORTH CENTRAL NEBRASKA...

CITY           SKY/WX    TMP DP  RH WIND       PRES   REMARKS
VALENTINE      SUNNY     71  61  70 W6        30.08S
AINSWORTH      SUNNY     72  62  71 W8        30.08S
ONEILL         MOSUNNY   69  61  75 W6        30.04S
BROKEN BOW     SUNNY     71  58  63 W7        30.07S
IMPERIAL       MOSUNNY   72  59  63 E6        30.12R
NORTH PLATTE   MOSUNNY   70  60  70 CALM      30.09F
MCCOOK         SUNNY     72  58  61 SE3       30.09S

...EASTERN NEBRASKA...

CITY           SKY/WX    TMP DP  RH WIND       PRES   REMARKS
NORFOLK        SUNNY     69  60  73 W8        29.99R
SO SIOUX CITY  SUNNY     71  61  70 NW7       29.95R
TEKAMAH        SUNNY     73  62  68 NW9       29.95R
COLUMBUS       SUNNY     70  57  64 NW9       29.98R
ALBION         SUNNY     65  57  74 NW7       30.02S
OMAHA EPPLEY   PTSUNNY   73  62  68 N9        29.94R
OFFUTT AFB     SUNNY     72  62  71 NW9       29.94R
MILLARD        SUNNY     71  61  69 NW9       29.94R
LINCOLN        SUNNY     73  59  61 NW8       29.98R
NEBRASKA CITY  SUNNY     74  57  55 NW8       29.96R
BEATRICE       SUNNY     68  62  79 CALM      29.99R
FALLS CITY     SUNNY     72  64  76 W7        29.95R

...NORTHERN KANSAS...

CITY           SKY/WX    TMP DP  RH WIND       PRES   REMARKS
GOODLAND       CLOUDY    68  57  68 NW7       30.15R
HILL CITY      SUNNY     76  52  43 CALM      30.08R
NORTON         SUNNY     73  46  38 CALM      30.08R
PHILLIPSBURG   SUNNY     75  55  50 W6        30.07S
SMITH CENTER   SUNNY     73  55  53 W7        30.06R
HAYS           SUNNY     73  52  46 N5        30.07S
RUSSELL        SUNNY     74  55  51 NW8       30.05R
CONCORDIA      SUNNY     68  59  73 W6        30.02R
SALINA         SUNNY     71  57  61 NW6       30.02R



USA.gov is the U.S. government's official web portal to all federal, state and local government web resources and services.